Location: Olomouc
(49.5830°N, 17.2500°E)
Time: 00:08:20
(UTC+02:00)

ISS - Visible Passes

Search period start: 28 October 2021 00:00
Search period end: 06 November 2021 23:00
Orbit: 417 x 423 km, 51.6° (Epoch: 27 October)

Date Brightness Start Highest point End Pass type
(mag) Time Alt. Az. Time Alt. Az. Time Alt. Az.
28 Oct -3.8 05:35:41 69° SSW 05:35:56 74° SSE 05:39:18 10° ENE visible
29 Oct -1.4 04:50:27 24° E 04:50:27 24° E 04:52:00 10° ENE visible
29 Oct -3.6 06:23:27 21° W 06:25:32 62° N 06:28:54 10° ENE visible
30 Oct -3.8 05:38:10 70° NNW 05:38:14 71° NNW 05:41:37 10° ENE visible
31 Oct -1.4 03:52:52 24° ENE 03:52:52 24° ENE 03:54:19 10° ENE visible
31 Oct -3.5 05:25:50 21° WNW 05:27:56 59° N 05:31:17 10° E visible
01 Nov -3.6 04:40:30 58° N 04:40:35 58° N 04:43:56 10° E visible
02 Nov -1.3 03:55:10 23° ENE 03:55:10 23° ENE 03:56:36 10° ENE visible
02 Nov -3.7 05:28:08 21° WNW 05:30:16 73° NNE 05:33:38 10° E visible
03 Nov -3.6 04:42:48 63° N 04:42:56 64° N 04:46:18 10° E visible
04 Nov -1.3 03:57:28 23° ENE 03:57:28 23° ENE 03:58:55 10° E visible
04 Nov -3.7 05:30:27 22° WNW 05:32:30 69° SSW 05:35:51 10° ESE visible
05 Nov -3.9 04:45:09 87° WNW 04:45:12 90° SSE 04:48:35 10° ESE visible
06 Nov -1.3 03:59:53 22° E 03:59:53 22° E 04:01:14 10° E visible
06 Nov -2.8 05:32:52 21° W 05:34:33 34° SSW 05:37:38 10° SE visible
